• In Denmark
  • List of Countries
  • For 7 days
  • Water Temperature
  • Satellite Maps
  • Weather Map
  • Weather Widgets
  • user-avatar
    Login

    Hourly Weather Klagenfurt

    Today, 24 November, Friday

    Time Temperature Precipitation Wind Pressure Humidity
    00:00 +4°C° 0 mm 1 mps 691 mmHg 92%
    01:00 +4°C° 0 mm 2 mps 691 mmHg 90%
    02:00 +5°C° 0 mm 1 mps 691 mmHg 90%
    03:00 +4°C° 0 mm 1 mps 691 mmHg 90%
    04:00 +4°C° 0 mm 1 mps 691 mmHg 90%
    05:00 +4°C° 0 mm 1 mps 691 mmHg 90%
    06:00 +4°C° 0 mm 1 mps 691 mmHg 90%
    07:00 +4°C° 0 mm 1 mps 691 mmHg 90%
    08:00 +5°C° 0 mm 1 mps 691 mmHg 85%
    09:00 +7°C° 0 mm 1 mps 691 mmHg 81%
    10:00 +8°C° 0 mm 1 mps 691 mmHg 76%
    11:00 +9°C° 0 mm 1 mps 691 mmHg 73%
    12:00 +10°C° 0 mm 1 mps 691 mmHg 71%
    13:00 +11°C° 0 mm 1 mps 691 mmHg 68%
    14:00 +10°C° 0 mm 1 mps 691 mmHg 74%
    15:00 +9°C° 0 mm 1 mps 691 mmHg 80%
    16:00 +7°C° 0 mm 1 mps 690 mmHg 86%
    17:00 +7°C° 0 mm 1 mps 690 mmHg 88%
    18:00 +6°C° 0 mm 1 mps 690 mmHg 91%
    19:00 +5°C° 0 mm 1 mps 690 mmHg 93%
    20:00 +5°C° 0 mm 1 mps 690 mmHg 94%
    21:00 +5°C° 0 mm 1 mps 690 mmHg 94%
    22:00 +5°C° 0 mm 1 mps 690 mmHg 94%
    23:00 +5°C° 0 mm 1 mps 690 mmHg 94%

    Tomorrow, 25 November, Saturday

    Time Temperature Precipitation Wind Pressure Humidity
    00:00 +5°C° 0 mm 1 mps 689 mmHg 94%
    01:00 +5°C° 0 mm 1 mps 689 mmHg 94%
    02:00 +5°C° 0 mm 1 mps 689 mmHg 94%
    03:00 +5°C° 0 mm 1 mps 688 mmHg 94%
    04:00 +5°C° 0 mm 1 mps 688 mmHg 94%
    05:00 +6°C° 0.1 mm 1 mps 687 mmHg 95%
    06:00 +6°C° 0.1 mm 1 mps 687 mmHg 95%
    07:00 +6°C° 0.1 mm 1 mps 687 mmHg 95%
    08:00 +6°C° 0.2 mm 2 mps 686 mmHg 94%
    09:00 +6°C° 0.2 mm 2 mps 686 mmHg 93%
    10:00 +7°C° 0.2 mm 2 mps 685 mmHg 92%
    11:00 +7°C° 0.3 mm 3 mps 685 mmHg 91%
    12:00 +7°C° 0.3 mm 3 mps 684 mmHg 90%
    13:00 +8°C° 0.3 mm 3 mps 684 mmHg 90%
    14:00 +8°C° 0.6 mm 2 mps 684 mmHg 91%
    15:00 +7°C° 0.6 mm 2 mps 684 mmHg 93%
    16:00 +7°C° 0.6 mm 2 mps 684 mmHg 94%
    17:00 +7°C° 1.6 mm 2 mps 684 mmHg 94%
    18:00 +7°C° 1.6 mm 2 mps 684 mmHg 95%
    19:00 +8°C° 1.6 mm 1 mps 684 mmHg 95%
    20:00 +8°C° 4 mm 1 mps 684 mmHg 95%
    21:00 +7°C° 4 mm 1 mps 685 mmHg 94%
    22:00 +7°C° 4 mm 1 mps 685 mmHg 94%
    23:00 +5°C° 3.9 mm 2 mps 685 mmHg 93%

    Day after tomorrow, 26 November, Sunday

    Time Temperature Precipitation Wind Pressure Humidity
    00:00 +4°C° 3.9 mm 2 mps 685 mmHg 93%
    01:00 +4°C° 3.9 mm 2 mps 685 mmHg 92%
    02:00 +3°C° 1.4 mm 2 mps 685 mmHg 91%
    03:00 +3°C° 1.4 mm 2 mps 685 mmHg 91%
    04:00 +3°C° 1.4 mm 2 mps 686 mmHg 91%
    05:00 +2°C° 0.3 mm 2 mps 686 mmHg 90%
    06:00 +2°C° 0.3 mm 2 mps 687 mmHg 89%
    07:00 +2°C° 0.3 mm 2 mps 687 mmHg 88%
    08:00 +2°C° 0.3 mm 2 mps 688 mmHg 87%
    09:00 +2°C° 0.3 mm 2 mps 688 mmHg 85%
    10:00 +2°C° 0.3 mm 2 mps 689 mmHg 84%
    11:00 +2°C° 0.3 mm 2 mps 689 mmHg 82%
    12:00 +1°C° 0.3 mm 3 mps 689 mmHg 79%
    13:00 +1°C° 0.3 mm 3 mps 689 mmHg 77%
    14:00 +1°C° 0.1 mm 3 mps 689 mmHg 77%
    15:00 +1°C° 0.1 mm 2 mps 690 mmHg 78%
    16:00 +1°C° 0.1 mm 2 mps 690 mmHg 79%
    17:00 -1°C° 0 mm 2 mps 691 mmHg 80%
    18:00 -1°C° 0 mm 2 mps 691 mmHg 81%
    19:00 -2°C° 0 mm 2 mps 692 mmHg 83%
    20:00 -3°C° 0 mm 2 mps 692 mmHg 83%
    21:00 -3°C° 0 mm 2 mps 692 mmHg 84%
    22:00 -4°C° 0 mm 2 mps 693 mmHg 84%
    23:00 -5°C° 0 mm 2 mps 693 mmHg 84%

    27 November, Monday

    Time Temperature Precipitation Wind Pressure Humidity
    00:00 -5°C° 0 mm 2 mps 693 mmHg 84%
    01:00 -6°C° 0 mm 2 mps 693 mmHg 84%
    02:00 -6°C° 0 mm 2 mps 693 mmHg 83%
    03:00 -6°C° 0 mm 2 mps 693 mmHg 83%
    04:00 -6°C° 0 mm 2 mps 694 mmHg 82%
    05:00 -4°C° 0 mm 1 mps 694 mmHg 81%
    06:00 -6°C° 0 mm 1 mps 694 mmHg 81%
    07:00 -6°C° 0 mm 1 mps 695 mmHg 80%
    08:00 -3°C° 0 mm 1 mps 695 mmHg 75%
    09:00 -1°C° 0 mm 1 mps 696 mmHg 70%
    10:00 0°C° 0 mm 1 mps 696 mmHg 65%
    11:00 +1°C° 0 mm 1 mps 696 mmHg 62%
    12:00 +2°C° 0 mm 1 mps 696 mmHg 58%
    13:00 +3°C° 0 mm 1 mps 696 mmHg 55%
    14:00 +2°C° 0 mm 1 mps 695 mmHg 60%
    15:00 +1°C° 0 mm 1 mps 695 mmHg 65%
    16:00 0°C° 0 mm 1 mps 695 mmHg 69%
    17:00 -1°C° 0 mm 1 mps 695 mmHg 72%
    18:00 -2°C° 0 mm 1 mps 695 mmHg 74%
    19:00 -3°C° 0 mm 1 mps 695 mmHg 77%
    20:00 -3°C° 0 mm 1 mps 695 mmHg 77%
    21:00 -3°C° 0 mm 1 mps 695 mmHg 76%
    22:00 -4°C° 0 mm 1 mps 695 mmHg 76%
    23:00 -4°C° 0 mm 1 mps 695 mmHg 75%

    28 November, Tuesday

    Time Temperature Precipitation Wind Pressure Humidity
    00:00 -4°C° 0 mm 1 mps 694 mmHg 74%
    01:00 -4°C° 0 mm 1 mps 694 mmHg 73%
    02:00 -4°C° 0 mm 1 mps 693 mmHg 72%
    03:00 -4°C° 0 mm 1 mps 693 mmHg 71%
    04:00 -4°C° 0 mm 1 mps 693 mmHg 70%
    05:00 -4°C° 0 mm 1 mps 692 mmHg 69%
    06:00 -4°C° 0 mm 1 mps 692 mmHg 68%
    07:00 -4°C° 0 mm 1 mps 692 mmHg 67%
    08:00 -2°C° 0 mm 1 mps 692 mmHg 63%
    09:00 0°C° 0 mm 1 mps 692 mmHg 59%
    10:00 +1°C° 0 mm 0 mps 692 mmHg 55%
    11:00 +3°C° 0 mm 1 mps 691 mmHg 53%
    12:00 +3°C° 0 mm 1 mps 691 mmHg 52%
    13:00 +4°C° 0 mm 1 mps 690 mmHg 50%
    14:00 +3°C° 0 mm 1 mps 689 mmHg 57%
    15:00 +2°C° 0 mm 1 mps 689 mmHg 63%
    16:00 0°C° 0 mm 1 mps 688 mmHg 70%
    17:00 -1°C° 0 mm 1 mps 688 mmHg 71%
    18:00 -1°C° 0 mm 1 mps 687 mmHg 72%
    19:00 -2°C° 0 mm 1 mps 687 mmHg 74%
    20:00 -2°C° 0 mm 1 mps 687 mmHg 73%
    21:00 -3°C° 0 mm 1 mps 687 mmHg 72%
    22:00 -3°C° 0 mm 1 mps 686 mmHg 71%
    23:00 -3°C° 0 mm 1 mps 686 mmHg 70%

    29 November, Wednesday

    Time Temperature Precipitation Wind Pressure Humidity
    00:00 -3°C° 0 mm 1 mps 686 mmHg 69%
    01:00 -3°C° 0 mm 1 mps 685 mmHg 69%
    02:00 -3°C° 0 mm 1 mps 685 mmHg 69%
    03:00 -3°C° 0 mm 1 mps 685 mmHg 69%
    04:00 -3°C° 0 mm 1 mps 684 mmHg 69%
    05:00 -3°C° 0 mm 1 mps 684 mmHg 69%
    06:00 -3°C° 0 mm 1 mps 684 mmHg 70%
    07:00 -3°C° 0 mm 1 mps 684 mmHg 70%
    08:00 -2°C° 0 mm 1 mps 684 mmHg 69%
    09:00 0°C° 0 mm 1 mps 685 mmHg 69%
    10:00 +1°C° 0 mm 1 mps 685 mmHg 68%
    11:00 +2°C° 0.1 mm 1 mps 684 mmHg 70%
    12:00 +2°C° 0.1 mm 1 mps 684 mmHg 73%
    13:00 +3°C° 0.1 mm 1 mps 684 mmHg 75%
    14:00 +2°C° 0.4 mm 1 mps 684 mmHg 80%
    15:00 +2°C° 0.4 mm 1 mps 684 mmHg 84%
    16:00 0°C° 0.4 mm 0 mps 683 mmHg 89%
    17:00 0°C° 0.9 mm 0 mps 684 mmHg 90%
    18:00 0°C° 0.9 mm 0 mps 684 mmHg 91%
    19:00 0°C° 0.9 mm 0 mps 684 mmHg 92%
    20:00 +1°C° 2.2 mm 1 mps 684 mmHg 93%
    21:00 +1°C° 2.2 mm 1 mps 684 mmHg 94%
    22:00 +1°C° 2.2 mm 1 mps 684 mmHg 94%
    23:00 +1°C° 2.2 mm 1 mps 684 mmHg 95%
    Show more